| time (UTC) | temp C | wind direction | speed KPH | gust KPH | rain 1hr cm | rain 24hr cm | rain mn cm | humidity % | barometer mb |
| 20260906123441 | 21 | 62 | 0.0 | 6.4 | 0.00 | 1.88 | 0.03 | 100 | 1013.7 |
| 20260906122942 | 21 | 272 | 0.0 | 1.6 | 0.00 | 1.88 | 0.03 | 99 | 1013.7 |
| 20260906122442 | 21 | 272 | 0.0 | 1.6 | 0.00 | 1.88 | 0.03 | 99 | 1013.6 |
| 20260906121941 | 21 | 272 | 0.0 | 0.0 | 0.00 | 1.88 | 0.03 | 99 | 1013.5 |
| 20260906121441 | 21 | 272 | 0.0 | 1.6 | 0.00 | 1.88 | 0.03 | 99 | 1013.5 |
| 20260906120939 | 21 | 272 | 0.0 | 1.6 | 0.00 | 1.88 | 0.03 | 99 | 1013.4 |
| 20260906120438 | 21 | 272 | 0.0 | 3.2 | 0.00 | 1.88 | 0.03 | 99 | 1013.4 |
| 20260906115936 | 21 | 272 | 0.0 | 3.2 | 0.00 | 1.88 | 0.03 | 99 | 1013.4 |
| 20260906115431 | 21 | 272 | 0.0 | 3.2 | 0.00 | 1.88 | 0.03 | 99 | 1013.5 |
| 20260906114924 | 21 | 272 | 0.0 | 0.0 | 0.00 | 1.88 | 0.03 | 99 | 1013.5 |
| 20260906114418 | 21 | 272 | 0.0 | 0.0 | 0.00 | 1.88 | 0.03 | 99 | 1013.5 |
| 20260906113912 | 21 | 272 | 0.0 | 0.0 | 0.00 | 1.88 | 0.03 | 99 | 1013.4 |
| 20260906113406 | 21 | 272 | 0.0 | 0.0 | 0.00 | 1.88 | 0.03 | 99 | 1013.4 |
| 20260906112900 | 21 | 272 | 0.0 | 0.0 | 0.00 | 1.88 | 0.03 | 99 | 1013.3 |
| 20260906112355 | 21 | 272 | 0.0 | 0.0 | 0.00 | 1.88 | 0.03 | 99 | 1013.3 |
| 20260906111848 | 21 | 272 | 0.0 | 0.0 | 0.00 | 1.88 | 0.03 | 99 | 1013.1 |
| 20260906111342 | 20 | 272 | 0.0 | 0.0 | 0.00 | 1.88 | 0.03 | 99 | 1013.1 |
| 20260906110836 | 20 | 272 | 0.0 | 0.0 | 0.00 | 1.88 | 0.03 | 99 | 1013.0 |
| 20260906110330 | 20 | 272 | 0.0 | 0.0 | 0.00 | 1.88 | 0.03 | 99 | 1013.0 |
| 20260906110054 | 20 | 272 | 0.0 | 0.0 | 0.00 | 1.88 | 0.03 | 99 | 1012.9 |
| 20260906105318 | 20 | 272 | 0.0 | 0.0 | 0.03 | 1.88 | 0.03 | 99 | 1012.8 |
| 20260906105036 | 20 | 272 | 0.0 | 0.0 | 0.03 | 1.88 | 0.03 | 99 | 1012.7 |
| 20260906104306 | 20 | 272 | 0.0 | 0.0 | 0.03 | 1.88 | 0.03 | 99 | 1012.6 |
| 20260906103801 | 20 | 272 | 0.0 | 0.0 | 0.03 | 1.88 | 0.03 | 99 | 1012.5 |
| 20260906103254 | 20 | 272 | 0.0 | 0.0 | 0.03 | 1.88 | 0.03 | 98 | 1012.3 |
| 20260906102754 | 20 | 272 | 0.0 | 0.0 | 0.03 | 1.88 | 0.03 | 99 | 1012.4 |
| 20260906102250 | 20 | 272 | 0.0 | 0.0 | 0.03 | 1.88 | 0.03 | 99 | 1012.4 |
| 20260906101750 | 20 | 272 | 0.0 | 0.0 | 0.03 | 1.88 | 0.03 | 99 | 1012.5 |
| 20260906101250 | 20 | 272 | 0.0 | 1.6 | 0.03 | 1.88 | 0.03 | 98 | 1012.4 |
| 20260906100750 | 20 | 272 | 0.0 | 4.8 | 0.03 | 1.88 | 0.03 | 98 | 1012.6 |
| 20260906100249 | 21 | 272 | 1.6 | 4.8 | 0.03 | 1.88 | 0.03 | 98 | 1012.6 |
| 20260906095749 | 21 | 272 | 1.6 | 3.2 | 0.03 | 1.88 | 0.03 | 98 | 1012.5 |
| 20260906095249 | 21 | 272 | 0.0 | 3.2 | 0.00 | 1.85 | 0.00 | 98 | 1012.5 |
| 20260906095012 | 21 | 272 | 0.0 | 0.0 | 0.00 | 1.85 | 0.00 | 98 | 1012.4 |
| 20260906094248 | 21 | 272 | 0.0 | 0.0 | 0.00 | 1.85 | 0.00 | 98 | 1012.5 |
| 20260906094013 | 21 | 272 | 0.0 | 0.0 | 0.00 | 1.85 | 0.00 | 98 | 1012.3 |
| 20260906093254 | 21 | 272 | 0.0 | 0.0 | 0.00 | 1.85 | 0.00 | 98 | 1012.3 |
| 20260906092750 | 21 | 272 | 0.0 | 3.2 | 0.00 | 1.85 | 0.00 | 98 | 1012.5 |
| 20260906092515 | 21 | 272 | 1.6 | 3.2 | 0.00 | 1.85 | 0.00 | 98 | 1012.5 |
| 20260906091749 | 21 | 272 | 0.0 | 3.2 | 0.00 | 1.85 | 0.00 | 98 | 1012.4 |
| 20260906091248 | 21 | 266 | 0.0 | 3.2 | 0.00 | 1.85 | 0.00 | 98 | 1012.5 |
| 20260906090750 | 21 | 266 | 0.0 | 3.2 | 0.00 | 1.85 | 0.00 | 98 | 1012.5 |
| 20260906090513 | 21 | 266 | 0.0 | 3.2 | 0.00 | 1.85 | 0.00 | 98 | 1012.4 |
| 20260906090234 | 21 | 266 | 0.0 | 3.2 | 0.00 | 1.85 | 0.00 | 98 | 1012.4 |
| 20260906085248 | 21 | 200 | 0.0 | 0.0 | 0.00 | 1.85 | 0.00 | 98 | 1012.3 |
| 20260906085011 | 21 | 200 | 0.0 | 0.0 | 0.00 | 1.85 | 0.00 | 98 | 1012.4 |
| 20260906084249 | 21 | 200 | 0.0 | 0.0 | 0.00 | 1.85 | 0.00 | 98 | 1012.3 |
| 20260906083750 | 21 | 200 | 0.0 | 0.0 | 0.00 | 1.85 | 0.00 | 98 | 1012.2 |
| 20260906083250 | 21 | 200 | 0.0 | 0.0 | 0.00 | 1.85 | 0.00 | 98 | 1012.1 |
| 20260906082748 | 21 | 200 | 0.0 | 0.0 | 0.00 | 1.85 | 0.00 | 98 | 1012.3 |
| 20260906082246 | 21 | 200 | 0.0 | 0.0 | 0.00 | 1.85 | 0.00 | 98 | 1012.2 |
| 20260906081746 | 21 | 200 | 0.0 | 1.6 | 0.00 | 1.85 | 0.00 | 98 | 1012.2 |
| 20260906081244 | 21 | 200 | 0.0 | 3.2 | 0.00 | 1.85 | 0.00 | 98 | 1012.3 |
| 20260906080745 | 21 | 200 | 0.0 | 3.2 | 0.00 | 1.85 | 0.00 | 98 | 1012.2 |
| 20260906080244 | 21 | 200 | 0.0 | 0.0 | 0.00 | 1.85 | 0.00 | 98 | 1012.3 |
| 20260906075743 | 21 | 200 | 0.0 | 0.0 | 0.00 | 1.85 | 0.00 | 98 | 1012.2 |
| 20260906075237 | 21 | 200 | 0.0 | 0.0 | 0.00 | 1.85 | 0.00 | 98 | 1012.3 |
| 20260906074731 | 21 | 200 | 0.0 | 0.0 | 0.00 | 1.85 | 0.00 | 98 | 1012.4 |
| 20260906074448 | 21 | 200 | 0.0 | 0.0 | 0.00 | 1.85 | 0.00 | 98 | 1012.5 |
| 20260906073719 | 21 | 200 | 0.0 | 0.0 | 0.00 | 1.85 | 0.00 | 98 | 1012.4 |
| 20260906073214 | 21 | 200 | 0.0 | 0.0 | 0.00 | 1.85 | 0.00 | 98 | 1012.4 |
| 20260906072926 | 21 | 200 | 0.0 | 1.6 | 0.00 | 1.85 | 0.00 | 98 | 1012.5 |
| 20260906072200 | 21 | 200 | 0.0 | 1.6 | 0.00 | 1.85 | 0.00 | 98 | 1012.7 |
| 20260906071655 | 21 | 200 | 0.0 | 0.0 | 0.00 | 1.85 | 0.00 | 98 | 1012.7 |
| 20260906071149 | 21 | 200 | 0.0 | 0.0 | 0.00 | 1.85 | 0.00 | 98 | 1012.5 |
| 20260906070643 | 21 | 200 | 0.0 | 0.0 | 0.00 | 1.85 | 0.00 | 98 | 1012.6 |
| 20260906070137 | 21 | 200 | 0.0 | 0.0 | 0.00 | 1.85 | 0.00 | 98 | 1012.6 |
| 20260906065632 | 21 | 200 | 0.0 | 0.0 | 0.00 | 1.85 | 0.00 | 98 | 1012.5 |
| 20260906065125 | 21 | 200 | 0.0 | 0.0 | 0.00 | 1.85 | 0.00 | 98 | 1012.6 |
| 20260906064619 | 21 | 200 | 0.0 | 0.0 | 0.00 | 1.85 | 0.00 | 98 | 1012.5 |
| 20260906064114 | 21 | 200 | 0.0 | 0.0 | 0.00 | 1.85 | 0.00 | 98 | 1012.4 |
| 20260906063827 | 21 | 200 | 0.0 | 0.0 | 0.00 | 1.85 | 0.00 | 98 | 1012.4 |
| 20260906063101 | 21 | 200 | 0.0 | 0.0 | 0.00 | 1.85 | 0.00 | 98 | 1012.7 |
| 20260906062555 | 21 | 200 | 0.0 | 0.0 | 0.00 | 1.85 | 0.00 | 98 | 1012.9 |
| 20260906062543 | 21 | 200 | 0.0 | 0.0 | 0.00 | 1.85 | 0.00 | 98 | 1012.9 |
| 20260906061812 | 21 | 200 | 0.0 | 0.0 | 0.00 | 1.85 | 0.00 | 98 | 1013.0 |
| 20260906061037 | 21 | 200 | 0.0 | 0.0 | 0.00 | 1.85 | 0.00 | 98 | 1012.9 |
| 20260906060532 | 21 | 200 | 0.0 | 0.0 | 0.00 | 1.85 | 0.00 | 98 | 1012.7 |
| 20260906060026 | 21 | 200 | 0.0 | 0.0 | 0.00 | 1.85 | 0.00 | 98 | 1012.8 |
| 20260906055519 | 21 | 200 | 0.0 | 0.0 | 0.00 | 1.85 | 0.00 | 98 | 1012.9 |
| 20260906055014 | 21 | 200 | 0.0 | 0.0 | 0.00 | 1.85 | 0.00 | 98 | 1013.0 |
| 20260906054728 | 21 | 200 | 0.0 | 0.0 | 0.00 | 1.85 | 0.00 | 98 | 1013.0 |
| 20260906054002 | 21 | 200 | 0.0 | 0.0 | 0.00 | 1.85 | 0.00 | 98 | 1013.2 |
| 20260906053945 | 21 | 200 | 0.0 | 0.0 | 0.00 | 1.85 | 0.00 | 98 | 1013.1 |
| 20260906053218 | 22 | 200 | 0.0 | 0.0 | 0.00 | 1.85 | 0.00 | 98 | 1013.2 |
| 20260906052443 | 22 | 200 | 0.0 | 3.2 | 0.00 | 1.85 | 0.00 | 98 | 1013.1 |
| 20260906051944 | 22 | 200 | 0.0 | 3.2 | 0.00 | 1.85 | 0.00 | 98 | 1013.1 |
| 20260906051440 | 22 | 200 | 0.0 | 1.6 | 0.00 | 1.85 | 0.00 | 98 | 1013.2 |
| 20260906050940 | 22 | 200 | 0.0 | 1.6 | 0.00 | 1.85 | 0.00 | 98 | 1013.2 |
| 20260906050441 | 22 | 200 | 0.0 | 1.6 | 0.00 | 1.85 | 0.00 | 98 | 1013.1 |
| 20260906045942 | 22 | 200 | 0.0 | 1.6 | 0.00 | 1.85 | 0.00 | 98 | 1013.2 |
| 20260906045441 | 22 | 200 | 0.0 | 0.0 | 0.00 | 1.85 | 0.00 | 98 | 1013.3 |
| 20260906045205 | 22 | 200 | 0.0 | 0.0 | 0.00 | 1.85 | 0.00 | 98 | 1013.5 |
| 20260906044701 | 22 | 200 | 0.0 | 0.0 | 0.00 | 1.85 | 0.00 | 98 | 1013.6 |
| 20260906043936 | 22 | 200 | 0.0 | 3.2 | 0.00 | 1.85 | 0.00 | 98 | 1013.8 |
| 20260906043436 | 22 | 200 | 0.0 | 3.2 | 0.00 | 1.85 | 0.00 | 98 | 1013.8 |
| 20260906042935 | 22 | 200 | 0.0 | 3.2 | 0.00 | 1.85 | 0.00 | 98 | 1013.8 |
| 20260906042433 | 22 | 231 | 0.0 | 0.0 | 0.00 | 1.85 | 0.00 | 98 | 1013.9 |
| 20260906041931 | 22 | 231 | 0.0 | 0.0 | 0.00 | 1.85 | 0.00 | 98 | 1013.7 |
| 20260906041429 | 22 | 231 | 0.0 | 0.0 | 0.00 | 1.85 | 0.00 | 98 | 1013.7 |
| 20260906041200 | 22 | 231 | 0.0 | 0.0 | 0.00 | 1.85 | 0.00 | 98 | 1013.6 |
| 20260906040424 | 22 | 231 | 0.0 | 0.0 | 0.00 | 1.85 | 0.00 | 97 | 1013.6 |
| 20260906035923 | 22 | 231 | 0.0 | 0.0 | 0.00 | 1.85 | 1.85 | 97 | 1013.6 |
| 20260906035416 | 22 | 231 | 0.0 | 0.0 | 0.00 | 1.85 | 1.85 | 97 | 1013.3 |
| 20260906034910 | 22 | 231 | 0.0 | 0.0 | 0.00 | 1.85 | 1.85 | 98 | 1013.2 |
| 20260906034404 | 22 | 231 | 0.0 | 1.6 | 0.00 | 1.85 | 1.85 | 98 | 1013.3 |
| 20260906033858 | 22 | 231 | 0.0 | 1.6 | 0.00 | 1.85 | 1.85 | 98 | 1013.4 |
| 20260906033352 | 22 | 231 | 0.0 | 0.0 | 0.00 | 1.85 | 1.85 | 98 | 1013.5 |
| 20260906032846 | 22 | 231 | 0.0 | 0.0 | 0.00 | 1.85 | 1.85 | 97 | 1013.6 |
| 20260906032340 | 22 | 231 | 0.0 | 0.0 | 0.00 | 1.85 | 1.85 | 97 | 1013.6 |
| 20260906031834 | 22 | 231 | 0.0 | 0.0 | 0.00 | 1.85 | 1.85 | 97 | 1013.3 |
| 20260906031328 | 22 | 231 | 0.0 | 0.0 | 0.00 | 1.85 | 1.85 | 97 | 1013.4 |
| 20260906031051 | 22 | 231 | 0.0 | 0.0 | 0.00 | 1.85 | 1.85 | 97 | 1013.4 |
| 20260906030323 | 22 | 231 | 0.0 | 0.0 | 0.00 | 1.85 | 1.85 | 97 | 1013.4 |
| 20260906025823 | 22 | 231 | 0.0 | 0.0 | 0.00 | 1.85 | 1.85 | 97 | 1013.2 |
| 20260906025318 | 22 | 231 | 0.0 | 0.0 | 0.00 | 1.85 | 1.85 | 97 | 1013.3 |
| 20260906024812 | 22 | 231 | 0.0 | 0.0 | 0.00 | 1.85 | 1.85 | 97 | 1013.2 |
| 20260906024750 | 22 | 231 | 0.0 | 0.0 | 0.00 | 1.85 | 1.85 | 97 | 1013.1 |
| 20260906024022 | 22 | 231 | 0.0 | 0.0 | 0.00 | 1.85 | 1.85 | 97 | 1013.3 |
| 20260906023749 | 23 | 231 | 0.0 | 0.0 | 0.00 | 1.85 | 1.85 | 97 | 1013.4 |
| 20260906022748 | 23 | 231 | 0.0 | 0.0 | 0.00 | 1.85 | 1.85 | 97 | 1013.4 |
| 20260906022242 | 23 | 231 | 0.0 | 0.0 | 0.00 | 1.85 | 1.85 | 97 | 1013.4 |
| 20260906021736 | 23 | 231 | 0.0 | 0.0 | 0.00 | 1.85 | 1.85 | 97 | 1013.3 |
| 20260906021234 | 23 | 231 | 0.0 | 3.2 | 0.00 | 1.85 | 1.85 | 97 | 1013.3 |
| 20260906020733 | 23 | 231 | 1.6 | 3.2 | 0.00 | 1.85 | 1.85 | 97 | 1013.1 |
| 20260906020234 | 23 | 231 | 1.6 | 4.8 | 0.00 | 1.85 | 1.85 | 97 | 1013.1 |
| 20260906015732 | 23 | 294 | 0.0 | 4.8 | 0.00 | 1.85 | 1.85 | 97 | 1012.9 |
| 20260906015234 | 23 | 309 | 0.0 | 3.2 | 0.00 | 1.85 | 1.85 | 97 | 1013.0 |
| 20260906014734 | 23 | 309 | 0.0 | 3.2 | 0.00 | 1.85 | 1.85 | 97 | 1012.9 |
| 20260906014233 | 23 | 355 | 0.0 | 1.6 | 0.00 | 1.85 | 1.85 | 97 | 1012.6 |
| 20260906013733 | 23 | 355 | 0.0 | 1.6 | 0.00 | 1.85 | 1.85 | 97 | 1012.4 |
| 20260906013234 | 23 | 355 | 0.0 | 3.2 | 0.00 | 1.85 | 1.85 | 97 | 1012.4 |
| 20260906012730 | 23 | 355 | 0.0 | 3.2 | 0.00 | 1.85 | 1.85 | 97 | 1012.3 |
| 20260906012229 | 23 | 355 | 1.6 | 4.8 | 0.00 | 1.85 | 1.85 | 96 | 1012.4 |
| 20260906011728 | 23 | 338 | 1.6 | 4.8 | 0.00 | 1.85 | 1.85 | 96 | 1012.4 |
| 20260906011230 | 23 | 343 | 0.0 | 3.2 | 0.00 | 1.85 | 1.85 | 96 | 1012.3 |
| 20260906010730 | 23 | 344 | 1.6 | 6.4 | 0.00 | 1.85 | 1.85 | 96 | 1012.4 |
| 20260906010452 | 23 | 336 | 3.2 | 8.0 | 0.00 | 1.85 | 1.85 | 96 | 1012.3 |
| 20260906005730 | 23 | 315 | 1.6 | 8.0 | 0.03 | 1.85 | 1.85 | 96 | 1012.4 |
| 20260906005446 | 23 | 323 | 0.0 | 6.4 | 0.03 | 1.85 | 1.85 | 96 | 1012.5 |
| 20260906004730 | 23 | 333 | 0.0 | 3.2 | 0.03 | 1.85 | 1.85 | 96 | 1012.4 |
| 20260906004223 | 23 | 333 | 0.0 | 3.2 | 0.03 | 1.85 | 1.85 | 96 | 1012.5 |
| 20260906003717 | 23 | 333 | 1.6 | 4.8 | 0.03 | 1.85 | 1.85 | 96 | 1012.5 |
| 20260906003211 | 23 | 333 | 1.6 | 4.8 | 0.03 | 1.85 | 1.85 | 96 | 1012.7 |
| 20260906002705 | 23 | 325 | 0.0 | 1.6 | 0.05 | 1.85 | 1.85 | 96 | 1012.7 |
| 20260906002159 | 23 | 325 | 1.6 | 4.8 | 0.58 | 1.85 | 1.85 | 96 | 1012.6 |
| 20260906001653 | 23 | 325 | 3.2 | 6.4 | 1.63 | 1.85 | 1.85 | 95 | 1012.5 |
| 20260906001147 | 23 | 325 | 3.2 | 9.7 | 1.75 | 1.85 | 1.85 | 96 | 1012.4 |
| 20260906000900 | 23 | 320 | 3.2 | 9.7 | 1.75 | 1.85 | 1.85 | 96 | 1012.7 |
| 20260906000134 | 23 | 329 | 0.0 | 4.8 | 1.75 | 1.85 | 1.85 | 95 | 1012.6 |
| 20260905235612 | 23 | 329 | 0.0 | 0.0 | 1.73 | 1.83 | 1.83 | 95 | 1012.7 |
| 20260905235105 | 23 | 329 | 0.0 | 4.8 | 1.73 | 1.83 | 1.83 | 95 | 1012.8 |
| 20260905234558 | 23 | 329 | 3.2 | 8.0 | 1.73 | 1.83 | 1.83 | 95 | 1012.9 |
| 20260905234051 | 23 | 331 | 3.2 | 9.7 | 1.73 | 1.83 | 1.83 | 95 | 1012.9 |
| 20260905233805 | 23 | 322 | 1.6 | 9.7 | 1.73 | 1.83 | 1.83 | 94 | 1013.0 |
| 20260905233523 | 24 | 0 | 1.6 | 12.9 | 1.73 | 1.83 | 1.83 | 94 | 1012.8 |
| 20260905232533 | 24 | 195 | 3.2 | 12.9 | 1.63 | 1.73 | 1.73 | 92 | 1012.9 |
| 20260905232027 | 24 | 210 | 1.6 | 11.3 | 0.91 | 1.02 | 1.17 | 91 | 1013.8 |
| 20260905232007 | 25 | 38 | 0.0 | 3.2 | 0.08 | 0.18 | 0.20 | 92 | 1013.9 |
| 20260905231015 | 25 | 103 | 0.0 | 0.0 | 0.00 | 0.10 | 0.10 | 92 | 1013.5 |
| 20260905230510 | 25 | 103 | 0.0 | 0.0 | 0.00 | 0.10 | 0.10 | 92 | 1013.3 |
| 20260905230004 | 25 | 101 | 0.0 | 0.0 | 0.00 | 0.10 | 0.10 | 91 | 1012.9 |
| 20260905225457 | 25 | 101 | 0.0 | 3.2 | 0.00 | 0.10 | 0.10 | 90 | 1013.0 |
| 20260905224951 | 25 | 101 | 0.0 | 3.2 | 0.00 | 0.10 | 0.10 | 90 | 1012.9 |
| 20260905224445 | 25 | 103 | 0.0 | 3.2 | 0.00 | 0.10 | 0.10 | 90 | 1012.3 |
| 20260905223939 | 25 | 103 | 0.0 | 3.2 | 0.00 | 0.10 | 0.10 | 90 | 1012.1 |
| 20260905223433 | 25 | 103 | 0.0 | 3.2 | 0.00 | 0.10 | 0.10 | 91 | 1011.8 |
| 20260905222927 | 25 | 97 | 0.0 | 3.2 | 0.03 | 0.10 | 0.10 | 89 | 1011.4 |
| 20260905222907 | 25 | 96 | 0.0 | 1.6 | 0.03 | 0.10 | 0.10 | 88 | 1011.0 |
| 20260905221915 | 25 | 96 | 0.0 | 1.6 | 0.05 | 0.10 | 0.10 | 87 | 1011.2 |
| 20260905221410 | 25 | 96 | 0.0 | 6.4 | 0.05 | 0.10 | 0.10 | 87 | 1011.4 |
| 20260905221102 | 25 | 76 | 1.6 | 9.7 | 0.10 | 0.10 | 0.10 | 86 | 1012.0 |
| 20260905220945 | 25 | 96 | 1.6 | 6.4 | 0.08 | 0.10 | 0.10 | 86 | 1011.6 |
| 20260905215851 | 25 | 50 | 3.2 | 9.7 | 0.10 | 0.10 | 0.10 | 84 | 1011.9 |
| 20260905215345 | 25 | 225 | 3.2 | 9.7 | 0.10 | 0.10 | 0.10 | 83 | 1011.4 |
| 20260905214840 | 26 | 202 | 3.2 | 8.0 | 0.10 | 0.10 | 0.10 | 81 | 1011.2 |
| 20260905214333 | 26 | 325 | 3.2 | 6.4 | 0.10 | 0.10 | 0.10 | 79 | 1011.2 |
| 20260905214053 | 27 | 311 | 3.2 | 8.0 | 0.10 | 0.10 | 0.10 | 82 | 1011.5 |
| 20260905213321 | 27 | 204 | 4.8 | 8.0 | 0.10 | 0.10 | 0.10 | 82 | 1011.1 |
| 20260905213038 | 28 | 213 | 3.2 | 8.0 | 0.08 | 0.08 | 0.08 | 80 | 1011.0 |
| 20260905212538 | 29 | 189 | 1.6 | 8.0 | 0.08 | 0.08 | 0.08 | 78 | 1011.3 |
| 20260905211803 | 30 | 196 | 1.6 | 8.0 | 0.05 | 0.05 | 0.05 | 75 | 1011.9 |
| 20260905211257 | 31 | 222 | 1.6 | 8.0 | 0.03 | 0.03 | 0.05 | 75 | 1011.7 |
| 20260905210751 | 31 | 229 | 1.6 | 6.4 | 0.00 | 0.00 | 0.00 | 70 | 1011.5 |
| 20260905210251 | 31 | 342 | 1.6 | 3.2 | 0.00 | 0.00 | 0.00 | 67 | 1011.6 |
| 20260905205752 | 32 | 340 | 1.6 | 4.8 | 0.00 | 0.00 | 0.00 | 66 | 1011.3 |
| 20260905205515 | 32 | 250 | 1.6 | 4.8 | 0.00 | 0.00 | 0.00 | 67 | 1011.1 |
| 20260905205016 | 32 | 5 | 1.6 | 8.0 | 0.00 | 0.00 | 0.00 | 67 | 1011.1 |
| 20260905204247 | 32 | 251 | 1.6 | 8.0 | 0.00 | 0.00 | 0.00 | 68 | 1010.9 |
| 20260905203743 | 32 | 337 | 1.6 | 8.0 | 0.00 | 0.00 | 0.00 | 67 | 1011.1 |
| 20260905203244 | 32 | 330 | 1.6 | 8.0 | 0.00 | 0.00 | 0.00 | 68 | 1011.0 |
| 20260905202744 | 32 | 187 | 3.2 | 12.9 | 0.00 | 0.00 | 0.00 | 66 | 1011.1 |
| 20260905202240 | 33 | 210 | 3.2 | 12.9 | 0.00 | 0.00 | 0.00 | 66 | 1011.2 |
| 20260905201740 | 33 | 46 | 1.6 | 8.0 | 0.00 | 0.00 | 0.00 | 65 | 1011.1 |
| 20260905201241 | 33 | 221 | 1.6 | 4.8 | 0.00 | 0.00 | 0.00 | 67 | 1010.9 |
| 20260905200739 | 34 | 213 | 1.6 | 4.8 | 0.00 | 0.00 | 0.00 | 66 | 1010.8 |
| 20260905200239 | 35 | 231 | 0.0 | 3.2 | 0.00 | 0.00 | 0.00 | 63 | 1010.9 |
| 20260905195739 | 35 | 241 | 1.6 | 9.7 | 0.00 | 0.00 | 0.00 | 63 | 1011.0 |
| 20260905195237 | 35 | 241 | 1.6 | 9.7 | 0.00 | 0.00 | 0.00 | 61 | 1011.2 |
| 20260905195000 | 36 | 248 | 1.6 | 6.4 | 0.00 | 0.00 | 0.00 | 61 | 1010.9 |
| 20260905194234 | 36 | 185 | 3.2 | 12.9 | 0.00 | 0.00 | 0.00 | 60 | 1011.1 |
| 20260905193735 | 36 | 305 | 4.8 | 14.5 | 0.00 | 0.00 | 0.00 | 60 | 1011.3 |
| 20260905193235 | 36 | 187 | 4.8 | 14.5 | 0.00 | 0.00 | 0.00 | 59 | 1011.1 |
| 20260905192958 | 36 | 215 | 4.8 | 11.3 | 0.00 | 0.00 | 0.00 | 60 | 1011.2 |
| 20260905192234 | 36 | 190 | 4.8 | 11.3 | 0.00 | 0.00 | 0.00 | 59 | 1011.2 |
| 20260905191735 | 37 | 204 | 3.2 | 9.7 | 0.00 | 0.00 | 0.00 | 59 | 1011.2 |
| 20260905191229 | 37 | 327 | 3.2 | 9.7 | 0.00 | 0.00 | 0.00 | 59 | 1011.4 |
| 20260905190728 | 36 | 223 | 3.2 | 9.7 | 0.00 | 0.00 | 0.00 | 60 | 1011.4 |
| 20260905190229 | 37 | 15 | 3.2 | 9.7 | 0.00 | 0.00 | 0.00 | 59 | 1011.3 |
| 20260905190215 | 36 | 331 | 3.2 | 9.7 | 0.00 | 0.00 | 0.00 | 60 | 1011.6 |
| 20260905185229 | 36 | 221 | 3.2 | 9.7 | 0.00 | 0.00 | 0.00 | 61 | 1011.7 |
| 20260905184728 | 36 | 221 | 4.8 | 14.5 | 0.00 | 0.00 | 0.00 | 61 | 1011.8 |
| 20260905184229 | 36 | 225 | 4.8 | 14.5 | 0.00 | 0.00 | 0.00 | 60 | 1012.0 |
| 20260905183728 | 36 | 198 | 4.8 | 14.5 | 0.00 | 0.00 | 0.00 | 60 | 1012.1 |
| 20260905183228 | 36 | 184 | 4.8 | 14.5 | 0.00 | 0.00 | 0.00 | 60 | 1012.2 |
| 20260905182729 | 36 | 171 | 4.8 | 11.3 | 0.00 | 0.00 | 0.00 | 63 | 1012.3 |
| 20260905182229 | 36 | 169 | 3.2 | 8.0 | 0.00 | 0.00 | 0.00 | 60 | 1012.4 |
| 20260905181956 | 36 | 212 | 1.6 | 8.0 | 0.00 | 0.00 | 0.00 | 60 | 1012.5 |
| 20260905181227 | 36 | 307 | 1.6 | 8.0 | 0.00 | 0.00 | 0.00 | 61 | 1012.6 |
| 20260905180726 | 36 | 298 | 3.2 | 14.5 | 0.00 | 0.00 | 0.00 | 63 | 1012.7 |
| 20260905180225 | 36 | 211 | 3.2 | 14.5 | 0.00 | 0.00 | 0.00 | 62 | 1012.8 |
| 20260905175725 | 36 | 171 | 1.6 | 8.0 | 0.00 | 0.00 | 0.00 | 62 | 1012.8 |
| 20260905175227 | 36 | 171 | 1.6 | 8.0 | 0.00 | 0.00 | 0.00 | 63 | 1013.0 |
| 20260905174949 | 36 | 205 | 1.6 | 9.7 | 0.00 | 0.00 | 0.00 | 63 | 1013.1 |
| 20260905174226 | 35 | 5 | 3.2 | 9.7 | 0.00 | 0.00 | 0.00 | 62 | 1013.3 |
| 20260905173726 | 35 | 223 | 3.2 | 8.0 | 0.00 | 0.00 | 0.00 | 65 | 1013.4 |
| 20260905173226 | 35 | 184 | 1.6 | 8.0 | 0.00 | 0.00 | 0.00 | 64 | 1013.5 |
| 20260905172725 | 35 | 19 | 1.6 | 8.0 | 0.00 | 0.00 | 0.00 | 63 | 1013.5 |
| 20260905172226 | 35 | 215 | 1.6 | 8.0 | 0.00 | 0.00 | 0.00 | 65 | 1013.5 |
| 20260905171944 | 35 | 203 | 1.6 | 8.0 | 0.00 | 0.00 | 0.00 | 67 | 1013.5 |
| 20260905171225 | 35 | 316 | 1.6 | 8.0 | 0.00 | 0.00 | 0.00 | 67 | 1013.5 |
| 20260905171216 | 35 | 239 | 1.6 | 6.4 | 0.00 | 0.00 | 0.00 | 65 | 1013.5 |
| 20260905170225 | 35 | 324 | 1.6 | 6.4 | 0.00 | 0.00 | 0.00 | 65 | 1013.6 |
| 20260905165721 | 35 | 180 | 1.6 | 6.4 | 0.00 | 0.00 | 0.00 | 67 | 1013.7 |
| 20260905165221 | 34 | 195 | 1.6 | 9.7 | 0.00 | 0.00 | 0.00 | 66 | 1013.8 |
| 20260905164945 | 34 | 329 | 3.2 | 12.9 | 0.00 | 0.00 | 0.00 | 67 | 1013.9 |
| 20260905164220 | 34 | 338 | 3.2 | 12.9 | 0.00 | 0.00 | 0.00 | 67 | 1014.0 |
| 20260905163719 | 34 | 306 | 1.6 | 9.7 | 0.00 | 0.00 | 0.00 | 69 | 1014.2 |
| 20260905163217 | 33 | 198 | 3.2 | 8.0 | 0.00 | 0.00 | 0.00 | 69 | 1014.3 |
| 20260905162717 | 33 | 319 | 3.2 | 8.0 | 0.00 | 0.00 | 0.00 | 70 | 1014.2 |
| 20260905162214 | 33 | 202 | 1.6 | 6.4 | 0.00 | 0.00 | 0.00 | 70 | 1014.2 |
| 20260905161715 | 33 | 319 | 3.2 | 8.0 | 0.00 | 0.00 | 0.00 | 69 | 1014.4 |
| 20260905161212 | 33 | 227 | 3.2 | 11.3 | 0.00 | 0.00 | 0.00 | 72 | 1014.5 |
| 20260905160713 | 33 | 38 | 3.2 | 11.3 | 0.00 | 0.00 | 0.00 | 71 | 1014.5 |
| 20260905160213 | 33 | 5 | 1.6 | 8.0 | 0.00 | 0.00 | 0.00 | 73 | 1014.5 |
| 20260905155928 | 33 | 261 | 3.2 | 11.3 | 0.00 | 0.00 | 0.00 | 73 | 1014.5 |
| 20260905155210 | 32 | 310 | 3.2 | 11.3 | 0.00 | 0.00 | 0.00 | 72 | 1014.6 |
| 20260905154709 | 32 | 325 | 1.6 | 6.4 | 0.00 | 0.00 | 0.00 | 74 | 1014.7 |
| 20260905154210 | 32 | 0 | 3.2 | 12.9 | 0.00 | 0.00 | 0.00 | 74 | 1014.8 |
| 20260905153709 | 32 | 309 | 3.2 | 12.9 | 0.00 | 0.00 | 0.00 | 75 | 1014.8 |
| 20260905153428 | 32 | 351 | 3.2 | 8.0 | 0.00 | 0.00 | 0.00 | 75 | 1014.9 |
| 20260905152935 | 32 | 341 | 1.6 | 8.0 | 0.00 | 0.00 | 0.00 | 76 | 1015.1 |
| 20260905152428 | 31 | 257 | 1.6 | 9.7 | 0.00 | 0.00 | 0.00 | 77 | 1015.2 |
| 20260905151656 | 31 | 234 | 1.6 | 9.7 | 0.00 | 0.00 | 0.00 | 76 | 1015.3 |
| 20260905151150 | 31 | 252 | 3.2 | 8.0 | 0.00 | 0.00 | 0.00 | 79 | 1015.3 |
| 20260905150838 | 30 | 293 | 1.6 | 8.0 | 0.00 | 0.00 | 0.00 | 80 | 1015.2 |
| 20260905150727 | 31 | 355 | 3.2 | 8.0 | 0.00 | 0.00 | 0.00 | 79 | 1015.2 |
| 20260905145852 | 30 | 304 | 3.2 | 14.5 | 0.00 | 0.00 | 0.00 | 80 | 1015.2 |
| 20260905145126 | 30 | 306 | 3.2 | 14.5 | 0.00 | 0.00 | 0.00 | 81 | 1015.3 |
| 20260905144846 | 30 | 194 | 1.6 | 9.7 | 0.00 | 0.00 | 0.00 | 82 | 1015.4 |
| 20260905144114 | 29 | 223 | 1.6 | 9.7 | 0.00 | 0.00 | 0.00 | 83 | 1015.4 |
| 20260905143608 | 29 | 61 | 3.2 | 9.7 | 0.00 | 0.00 | 0.00 | 84 | 1015.4 |
| 20260905143102 | 28 | 227 | 1.6 | 6.4 | 0.00 | 0.00 | 0.00 | 85 | 1015.4 |
| 20260905142557 | 28 | 340 | 1.6 | 6.4 | 0.00 | 0.00 | 0.00 | 85 | 1015.5 |
| 20260905142050 | 28 | 206 | 1.6 | 4.8 | 0.00 | 0.00 | 0.00 | 86 | 1015.6 |
| 20260905141806 | 28 | 190 | 1.6 | 8.0 | 0.00 | 0.00 | 0.00 | 87 | 1015.7 |
| 20260905141039 | 28 | 296 | 1.6 | 8.0 | 0.00 | 0.00 | 0.00 | 87 | 1015.6 |
| 20260905140532 | 28 | 203 | 1.6 | 11.3 | 0.00 | 0.00 | 0.00 | 88 | 1015.6 |
| 20260905140026 | 27 | 192 | 1.6 | 11.3 | 0.00 | 0.00 | 0.00 | 89 | 1015.3 |
| 20260905135519 | 27 | 306 | 1.6 | 11.3 | 0.00 | 0.00 | 0.00 | 89 | 1015.4 |
| 20260905135014 | 27 | 253 | 1.6 | 11.3 | 0.00 | 0.00 | 0.00 | 90 | 1015.4 |
| 20260905134730 | 27 | 337 | 1.6 | 9.7 | 0.00 | 0.00 | 0.00 | 91 | 1015.4 |
| 20260905134002 | 27 | 341 | 1.6 | 9.7 | 0.00 | 0.00 | 0.00 | 91 | 1015.4 |
| 20260905133456 | 27 | 193 | 1.6 | 8.0 | 0.00 | 0.00 | 0.00 | 91 | 1015.4 |
| 20260905132950 | 26 | 211 | 1.6 | 9.7 | 0.00 | 0.00 | 0.00 | 92 | 1015.5 |
| 20260905132444 | 26 | 309 | 1.6 | 9.7 | 0.00 | 0.00 | 0.00 | 93 | 1015.6 |
| 20260905131938 | 26 | 306 | 1.6 | 4.8 | 0.00 | 0.00 | 0.00 | 93 | 1015.6 |
| 20260905131432 | 26 | 355 | 1.6 | 4.8 | 0.00 | 0.00 | 0.00 | 94 | 1015.6 |
| 20260905130926 | 26 | 250 | 1.6 | 8.0 | 0.00 | 0.00 | 0.00 | 94 | 1015.6 |
| 20260905130420 | 26 | 241 | 1.6 | 8.0 | 0.00 | 0.00 | 0.00 | 94 | 1015.7 |
| 20260905125914 | 25 | 230 | 1.6 | 4.8 | 0.00 | 0.00 | 0.00 | 95 | 1015.6 |
| 20260905125408 | 25 | 273 | 1.6 | 4.8 | 0.00 | 0.00 | 0.00 | 95 | 1015.7 |
| 20260905125350 | 25 | 234 | 1.6 | 8.0 | 0.00 | 0.00 | 0.00 | 95 | 1015.7 |
| 20260905124356 | 25 | 207 | 1.6 | 8.0 | 0.00 | 0.00 | 0.00 | 96 | 1015.8 |
| 20260905123851 | 25 | 232 | 1.6 | 4.8 | 0.00 | 0.00 | 0.00 | 96 | 1015.7 |